[[{"header":{"parameterUnit":"m.s-1","parameterCategory":1,"la1":30.2991,"la2":30.254,"lo1":-89.0895,"lo2":-89.0444,"dx":0.0017,"dy":0.0017,"nx":28,"ny":28,"refTime":"2022-11-15T09:00:00:Z","depth":0,"parameterNumber":2,"parameterNumberName":"U-component_of_WINDS"},"data":[0,0,0,0,0,0,0,0,0,0,0,0,0,0,0,0,0,0,0,0,0,0,0,0,0,0,0,0,0,0,0,0,0,0,0,0,0,0,0,0,0,0,0,0,0,0,0,0,0,0,0,0,0,0,0,0,0,0,-8.8708,-8.8708,0,-8.87,-8.87,-8.87,-8.8486,-8.848,-8.8475,-8.8469,-8.8463,-8.8468,-8.8472,0,0,0,0,0,0,0,0,0,0,0,0,0,-8.8538,-8.8542,-8.8708,-8.8708,-8.8708,-8.87,-8.87,-8.87,-8.8487,-8.848,-8.8473,-8.8467,-8.8461,-8.8467,-8.8473,0,0,0,0,0,0,0,0,0,0,0,0,0,-8.858,-8.8544,-8.8708,-8.86,-8.8591,-8.87,-8.87,-8.87,-8.8488,-8.848,-8.8471,-8.8464,-8.8459,-8.8466,-8.8474,-8.8686,0,0,-8.8497,-8.85,0,0,0,0,0,0,0,0,-8.8577,-8.8586,-8.8616,-8.8608,-8.8597,-8.8585,-8.8637,-8.8695,-8.849,-8.8527,-8.8469,-8.846,-8.851,-8.8513,-8.853,-8.8686,-8.8685,-8.8497,-8.8502,-8.8505,-8.8507,0,0,0,0,0,0,0,-8.8575,-8.8585,-8.8705,-8.8617,-8.8606,-8.8552,-8.8549,-8.8647,-8.8565,-8.8523,-8.8508,-8.851,-8.8503,-8.8523,-8.8528,-8.8685,-8.8497,-8.8504,-8.8508,-8.8511,-8.9011,-8.9019,0,0,0,0,0,0,-8.8587,-8.8584,-8.8705,-8.8705,-8.8567,-8.8562,-8.8559,-8.8598,-8.8564,-8.8551,-8.8517,-8.85,-8.8514,-8.852,-8.8527,-8.8769,-8.8505,-8.8512,-8.8516,-8.9002,-8.9013,-8.9022,0,0,0,0,0,0,-8.8584,-8.86,-8.8705,-8.864,-8.865,-8.8574,-8.862,-8.8602,-8.8621,-8.8559,-8.8543,-8.8552,-8.8508,-8.8517,-8.8647,-8.8766,-8.8515,-8.8522,-8.8992,-8.9005,-8.9018,-8.9258,0,0,0,0,0,0,-8.858,-8.86,-8.868,-8.8644,-8.8654,-8.8826,-8.8627,-8.8608,-8.8634,-8.8612,-8.8587,-8.8575,-8.8502,-8.8637,-8.8655,-8.8772,-8.8528,-8.8981,-8.8998,-8.9013,-8.9239,-8.9278,-8.9311,0,0,0,0,0,-8.8575,-8.8749,-8.8685,-8.8701,-8.8752,-8.8833,-8.8839,-8.8751,-8.8645,-8.8724,-8.8684,-8.8576,-8.8752,-8.8652,-8.867,-8.8791,-8.8973,-8.8993,-8.9012,-8.9223,-8.927,-8.931,0,0,0,0,0,0,-8.8801,-8.8742,-8.867,-8.8838,-8.8843,-8.8797,-8.8894,-8.8805,-8.8839,-8.8817,-8.8707,-8.8703,-8.885,-8.8834,-8.8725,-8.8993,-8.8843,-8.8867,-8.8997,-8.9042,-8.9077,-8.9075,-8.8534,0,0,0,0,0,-8.8871,-8.8942,-8.8887,-8.904,-8.9046,-8.8971,-8.9003,-8.8934,-8.8934,-8.8935,-8.8904,-8.8909,-8.8964,-8.9003,-8.9051,-8.9238,-8.9227,-8.933,-8.9366,-8.9396,-8.9416,-8.951,-8.9554,-8.9087,-8.9087,-8.9087,0,0,-8.9015,-8.8992,-8.9043,-8.9085,-8.908,-8.9154,-8.8973,-8.9061,-8.9115,-8.8948,-8.9067,-8.9047,-8.9044,-8.9203,-8.9271,-8.9194,-8.9544,-8.9421,-8.9445,-8.9449,-8.9535,-8.9579,-8.9619,-8.9101,-8.9098,-8.9096,0,0,-8.9315,-8.9306,-8.943,-8.9429,-8.9424,-8.9373,-8.9403,-8.9372,-8.935,-8.9469,-8.9345,-8.9408,-8.9508,-8.9509,-8.9523,-8.9825,-8.9725,-8.9844,-9.003,-9.0123,-9.0159,-9.0191,-9.0294,-9.0333,-8.9866,-8.9867,-8.9867,0,-8.9494,-8.9601,-8.9506,-8.9601,-8.9621,-8.9475,-8.9599,-8.9603,-8.9615,-8.9632,-8.9546,-8.9665,-8.9654,-8.9809,-8.9882,-8.9901,-8.9929,-8.9843,-9.0162,-9.0193,-9.0221,-9.0318,-9.0357,-8.9881,-8.9879,-8.9878,-8.9876,0,-8.982,-8.9897,-8.9998,-9.0011,-9.0044,-9.0154,-9.0074,-9.0119,-9.0049,-9.0007,-9.0129,-9.011,-9.015,-9.0183,-9.0117,-9.0329,-9.028,-9.0181,-9.0026,-9.0281,-9.037,-9.0407,-8.9901,-8.9896,-8.9892,-8.9888,0,0,-9.0259,-9.0217,-9.0255,-9.0258,-9.0242,-9.0299,-9.0402,-9.044,-9.0479,-9.0494,-9.0574,-9.0662,-9.0569,-9.0585,-9.0518,-9.0601,-9.0835,-9.0489,-9.0487,-9.055,-9.1062,-9.1133,-9.1178,-9.0771,-9.0778,-9.0784,-9.1061,0,-9.0544,-9.0715,-9.0632,-9.0813,-9.088,-9.0743,-9.0832,-9.0832,-9.0796,-9.0848,-9.0809,-9.087,-9.0745,-9.0754,-9.083,-9.079,-9.0935,-9.077,-9.0843,-9.0847,-9.0842,-9.1225,-9.1301,-9.1563,-9.1095,-9.1101,-9.1106,0,-9.0898,-9.0924,-9.1112,-9.108,-9.1106,-9.1187,-9.1214,-9.1267,-9.1264,-9.1232,-9.1251,-9.1164,-9.1262,-9.1114,-9.1246,-9.1135,-9.1161,-9.1147,-9.1155,-9.1153,-9.0987,-9.1229,-9.1645,-9.1683,-9.116,-9.1156,-9.1152,0,-9.1192,-9.1276,-9.1397,-9.1404,-9.1373,-9.1432,-9.1422,-9.1411,-9.1438,-9.1463,-9.1479,-9.1517,-9.1536,-9.1567,-9.1492,-9.1392,-9.1633,-9.148,-9.1607,-9.1609,-9.1659,-9.1656,-9.2079,-9.1687,-9.1686,-9.1685,-9.1684,0,-9.1516,-9.1634,-9.1528,-9.1602,-9.1731,-9.1635,-9.1765,-9.174,-9.1732,-9.1798,-9.1684,-9.1749,-9.1649,-9.1705,-9.1648,-9.1763,-9.1775,-9.175,-9.1732,-9.1756,-9.1759,-9.1767,-9.1745,-9.1695,-9.1693,-9.1691,-9.1689,0,-9.1863,-9.1798,-9.192,-9.188,-9.1873,-9.1969,-9.1934,-9.2001,-9.1958,-9.2043,-9.2058,-9.1991,-9.205,-9.198,-9.2034,-9.1995,-9.2151,-9.2109,-9.2151,-9.2137,-9.2266,-9.2253,-9.2705,-9.2758,-9.2337,-9.2341,-9.2345,0,-9.2071,-9.2158,-9.2128,-9.2163,-9.2159,-9.2219,-9.2246,-9.2157,-9.219,-9.2192,-9.2258,-9.2308,-9.2341,-9.2442,-9.2398,-9.2438,-9.2393,-9.2549,-9.2398,-9.2419,-9.2389,-9.2382,-9.2389,-9.2578,-9.2583,-9.2588,-9.2591,0,-9.2445,-9.2408,-9.245,-9.2482,-9.2517,-9.2539,-9.2551,-9.2588,-9.2494,-9.2537,-9.2595,-9.2622,-9.2676,-9.2725,-9.2753,-9.2742,-9.2651,-9.264,-9.267,-9.2693,-9.2711,-9.2698,-9.2229,-9.2628,-9.2625,-9.2622,-9.262,-9.2618,-9.2725,-9.2794,-9.2782,-9.2833,-9.2834,-9.2848,-9.2907,-9.2872,-9.2918,-9.2953,-9.2899,-9.2971,-9.2965,-9.2993,-9.2993,-9.3047,-9.298,-9.3026,-9.3036,-9.3048,-9.3064,-9.2708,-9.3053,-9.3052,-9.3051,-9.305,-9.3049,0,-9.3087,-9.3073,-9.3121,-9.3141,-9.3181,-9.3093,-9.3102,-9.3141,-9.3206,-9.3207,-9.3243,-9.3309,-9.3356,-9.3317,-9.3356,-9.3407,-9.3366,-9.342,-9.3412,-9.3411,-9.3125,-9.3092,-9.3452,-9.3452,-9.3452,-9.3452,-9.3452,-9.3452,-9.328,-9.3392,-9.3354,-9.3465,-9.3449,-9.3517,-9.353,-9.3542,-9.3542,-9.362,-9.3659,-9.3633,-9.3617,-9.3654,-9.3694,-9.3681,-9.3698,-9.3766,-9.3738,-9.3471,-9.3431,-9.3393,-9.3361,-9.3772,-9.3773,-9.4018,-9.402,-9.4022]},{"header":{"parameterUnit":"m.s-1","parameterCategory":1,"la1":30.2991,"la2":30.254,"lo1":-89.0895,"lo2":-89.0444,"dx":0.0017,"dy":0.0017,"nx":28,"ny":28,"refTime":"2022-11-15T09:00:00:Z","depth":0,"parameterNumber":3,"parameterNumberName":"V-component_of_WINDS"},"data":[0,0,0,0,0,0,0,0,0,0,0,0,0,0,0,0,0,0,0,0,0,0,0,0,0,0,0,0,0,0,0,0,0,0,0,0,0,0,0,0,0,0,0,0,0,0,0,0,0,0,0,0,0,0,0,0,0,0,1.793,1.793,0,1.7931,1.7931,1.7931,1.7849,1.7846,1.7844,1.7842,1.7843,1.7846,1.7848,0,0,0,0,0,0,0,0,0,0,0,0,0,1.7857,1.7859,1.793,1.793,1.793,1.7931,1.7931,1.7931,1.7849,1.7846,1.7844,1.7841,1.7843,1.7845,1.7848,0,0,0,0,0,0,0,0,0,0,0,0,0,1.7877,1.786,1.793,1.7889,1.7885,1.7931,1.7931,1.7931,1.785,1.7846,1.7843,1.784,1.7842,1.7845,1.7848,1.7933,0,0,1.7858,1.7859,0,0,0,0,0,0,0,0,1.7876,1.788,1.7895,1.7892,1.7888,1.7886,1.7906,1.7932,1.785,1.7863,1.7842,1.7838,1.786,1.7862,1.7869,1.7933,1.7933,1.7858,1.786,1.7861,1.7862,0,0,0,0,0,0,0,1.7875,1.7879,1.793,1.7895,1.7891,1.7871,1.787,1.7911,1.788,1.7862,1.7856,1.7857,1.7858,1.7866,1.7869,1.7933,1.7858,1.7861,1.7862,1.7864,1.8069,1.8072,0,0,0,0,0,0,1.7879,1.7879,1.793,1.793,1.7874,1.7875,1.7874,1.789,1.788,1.7875,1.786,1.7853,1.7863,1.7865,1.7868,1.7968,1.7861,1.7864,1.7866,1.8065,1.8069,1.8073,0,0,0,0,0,0,1.7878,1.7884,1.793,1.7903,1.7907,1.788,1.7899,1.7892,1.79,1.7878,1.7872,1.7874,1.786,1.7864,1.7918,1.7967,1.7865,1.7868,1.8061,1.8066,1.8071,1.8167,0,0,0,0,0,0,1.7876,1.7884,1.7916,1.7904,1.7909,1.798,1.7902,1.7894,1.7906,1.7897,1.789,1.7886,1.7858,1.7914,1.7921,1.7969,1.7871,1.8056,1.8063,1.807,1.816,1.8175,1.8189,0,0,0,0,0,1.7874,1.7942,1.7918,1.7924,1.7948,1.7983,1.7985,1.7952,1.791,1.7942,1.7928,1.7886,1.7961,1.792,1.7927,1.7977,1.8053,1.8061,1.8069,1.8153,1.8172,1.8188,0,0,0,0,0,0,1.796,1.794,1.7912,1.798,1.7984,1.7969,1.8007,1.7973,1.7989,1.798,1.7938,1.7937,1.7998,1.7993,1.7948,1.806,1.7999,1.8009,1.8061,1.8079,1.8093,1.8093,1.7873,0,0,0,0,0,1.7987,1.8016,1.7998,1.8059,1.8062,1.8035,1.8049,1.8023,1.8025,1.8026,1.8016,1.802,1.8045,1.8061,1.8083,1.8159,1.8157,1.8197,1.8212,1.8224,1.8233,1.8274,1.8292,1.81,1.81,1.8099,0,0,1.8042,1.8035,1.8056,1.8076,1.8076,1.8108,1.8037,1.8073,1.8097,1.8032,1.8082,1.8076,1.8077,1.8143,1.8172,1.8141,1.8285,1.8234,1.8244,1.8246,1.8284,1.8302,1.8318,1.8105,1.8104,1.8103,0,0,1.816,1.8158,1.8209,1.8211,1.8212,1.8194,1.8206,1.8197,1.819,1.824,1.8193,1.8221,1.8263,1.8267,1.8274,1.8396,1.8358,1.8405,1.848,1.8521,1.8536,1.8549,1.8593,1.8609,1.8414,1.8414,1.8414,0,1.8229,1.8275,1.8239,1.828,1.829,1.8234,1.8286,1.8289,1.8298,1.8306,1.8272,1.8326,1.8323,1.8389,1.8419,1.8427,1.8441,1.8405,1.8537,1.8549,1.8561,1.8603,1.8619,1.8419,1.8419,1.8418,1.8418,0,1.836,1.8393,1.8434,1.8444,1.846,1.8506,1.8478,1.8498,1.8472,1.8457,1.851,1.8505,1.8525,1.8539,1.8513,1.8603,1.8584,1.8544,1.8482,1.8586,1.8624,1.864,1.8428,1.8426,1.8424,1.8422,0,0,1.853,1.8521,1.8537,1.8541,1.854,1.8565,1.861,1.8629,1.8647,1.8656,1.8692,1.8731,1.8695,1.8703,1.8678,1.8714,1.8812,1.8669,1.8669,1.8696,1.8911,1.8941,1.8959,1.8787,1.879,1.8792,1.8911,0,1.8644,1.8719,1.8689,1.8766,1.8797,1.8746,1.8784,1.8788,1.8777,1.8802,1.8789,1.8817,1.8767,1.8772,1.8805,1.8793,1.8854,1.8784,1.8821,1.8823,1.8822,1.8979,1.901,1.9122,1.8925,1.8928,1.893,0,1.8786,1.8802,1.8883,1.8877,1.8889,1.8924,1.8941,1.8965,1.8969,1.8959,1.897,1.8937,1.8981,1.8921,1.8981,1.8934,1.8948,1.8944,1.8948,1.8949,1.8882,1.8985,1.9157,1.9174,1.8953,1.8951,1.8949,0,1.8903,1.8943,1.8997,1.9003,1.8998,1.9024,1.9023,1.9024,1.9038,1.9053,1.9063,1.9083,1.9093,1.911,1.9084,1.9042,1.9149,1.9086,1.9141,1.9142,1.9165,1.9164,1.9341,1.9175,1.9175,1.9174,1.9174,0,1.9033,1.9084,1.9049,1.9083,1.9139,1.9106,1.9163,1.9156,1.9158,1.9189,1.9146,1.9177,1.9141,1.9168,1.9149,1.9202,1.9207,1.92,1.9194,1.9204,1.9205,1.9211,1.9203,1.9179,1.9178,1.9177,1.9176,0,1.9171,1.915,1.9205,1.9197,1.9196,1.9239,1.9232,1.9262,1.9249,1.9289,1.9297,1.9276,1.9306,1.9283,1.9312,1.9299,1.937,1.9353,1.9368,1.9364,1.9421,1.9416,1.9608,1.9632,1.9451,1.9453,1.9454,0,1.9256,1.9294,1.9291,1.9309,1.9311,1.9341,1.9356,1.9325,1.9342,1.9351,1.9381,1.9408,1.9427,1.9479,1.9466,1.9489,1.9472,1.9538,1.9475,1.9484,1.9473,1.9471,1.9475,1.9551,1.9553,1.9555,1.9556,0,1.9408,1.9396,1.9419,1.944,1.9459,1.9473,1.9484,1.9502,1.947,1.9492,1.9523,1.9539,1.957,1.9597,1.9616,1.9615,1.9581,1.9576,1.959,1.96,1.9608,1.9605,1.9403,1.9572,1.957,1.9569,1.9568,1.9567,1.9521,1.9554,1.9557,1.9585,1.959,1.9602,1.9631,1.9622,1.9647,1.967,1.9651,1.9688,1.9693,1.9714,1.9719,1.9748,1.972,1.9741,1.9746,1.9751,1.9759,1.9604,1.9751,1.9751,1.975,1.975,1.9749,0,1.9671,1.9671,1.9697,1.9715,1.9737,1.9704,1.9715,1.9736,1.9769,1.9777,1.9798,1.9834,1.9861,1.9852,1.9876,1.9901,1.9886,1.9908,1.9906,1.9906,1.9782,1.9768,1.992,1.992,1.992,1.992,1.992,1.992,1.9751,1.9805,1.9794,1.985,1.985,1.9886,1.9896,1.9907,1.9913,1.9956,1.9978,1.9972,1.9973,1.9997,2.0021,2.0018,2.0028,2.0057,2.0048,1.9932,1.9915,1.9899,1.9885,2.006,2.006,2.0169,2.017,2.0171]}]]